[Iaude] MPEC M47: 2022 MA1 [a=1.54,e=0.37,i=22.3,H=22.3]

mpec at marsden.cfa.harvard.edu mpec at marsden.cfa.harvard.edu
Thu Jun 23 06:15:05 EDT 2022


M.P.E.C. 2022-M47                                 Issued 2022 June 23, 10:13 UT

     The Minor Planet Electronic Circulars contain information on unusual
         minor planets and routine data on comets.  They are published
    on behalf of Division F of the International Astronomical Union by the
          Minor Planet Center, Smithsonian Astrophysical Observatory,
                          Cambridge, MA 02138, U.S.A.

             Prepared using the Tamkin Foundation Computer Network

                              MPC at CFA.HARVARD.EDU
            URL https://www.minorplanetcenter.net/    ISSN 1523-6714

                                    2022 MA1                                    


Observations:
     K22M01A* C2022 06 22.39393616 50 20.345+17 50 45.67         19.09oVEM047T08
     K22M01A  C2022 06 22.40087316 50 18.391+17 50 09.71         18.97oVEM047T08
     K22M01A  C2022 06 22.40686116 50 16.776+17 49 37.88         19.31oVEM047T08
     K22M01A  C2022 06 22.41671616 50 14.006+17 48 45.18         18.89oVEM047T08
     K22M01A KC2022 06 22.89133116 48 16.596+17 05 26.23         18.3 GVEM047B49
     K22M01A KC2022 06 22.89320616 48 16.025+17 05 15.50         19.0 GVEM047B49
     K22M01A KC2022 06 22.89614616 48 15.197+17 04 59.70         19.0 GVEM047B49
     K22M01A KC2022 06 22.90217016 48 13.510+17 04 26.26         19.4 GVEM047B49
     K22M01A KC2022 06 22.90284116 48 13.315+17 04 22.62         19.3 GVEM047B49
     K22M01A KC2022 06 22.91088 16 48 09.96 +17 04 59.0          19.5 GVEM047M21
     K22M01A KC2022 06 22.91180616 48 10.762+17 03 31.93         19.0 GVEM047B49
     K22M01A KC2022 06 22.91938 16 48 07.50 +17 04 10.2                VEM047M21
     K22M01A KC2022 06 22.92017516 48 07.776+17 02 40.77         19.7 GVEM047K63
     K22M01A KC2022 06 22.92242016 48 07.154+17 02 28.51         19.5 GVEM047K63
     K22M01A KC2022 06 22.92429216 48 06.618+17 02 17.51         19.5 GVEM047K63
     K22M01A KC2022 06 22.94800 16 48 00.86 +17 00 08.9          19.5 GXEM047Z41
     K22M01A KC2022 06 22.95060 16 48 00.14 +16 59 54.5          19.1 GXEM047Z41
     K22M01A KC2022 06 22.95297 16 47 59.45 +16 59 41.0          19.5 GXEM047Z41
     K22M01A KC2022 06 22.95308 16 47 59.43 +16 59 40.5          19.3 GXEM047Z41
     K22M01A KC2022 06 22.96567416 47 55.694+16 58 16.68         19.1 GVEM047J95
     K22M01A KC2022 06 22.96885416 47 54.845+16 57 58.57         18.8 GVEM047J95
     K22M01A KC2022 06 22.97201616 47 53.959+16 57 40.14         19.3 GVEM047J95
     K22M01A hC2022 06 22.98579216 47 49.00 +16 56 28.5          19.3 GVEM047L01
     K22M01A hC2022 06 22.98744716 47 48.56 +16 56 18.8          19.4 GVEM047L01
     K22M01A hC2022 06 22.98910316 47 48.06 +16 56 08.9          19.5 GVEM047L01
     K22M01A hC2022 06 22.99083816 47 47.59 +16 55 59.1          19.3 GVEM047L01
     K22M01A hC2022 06 22.99286816 47 47.00 +16 55 47.6          19.5 GVEM047L01
     K22M01A 2C2022 06 23.00620 16 47 44.09 +16 54 42.8          19.4 GVEM047Z84
     K22M01A 2C2022 06 23.01861 16 47 40.52 +16 53 31.6          19.4 GVEM047Z84
     K22M01A 2C2022 06 23.03103 16 47 36.96 +16 52 20.1          19.4 GVEM047Z84
     K22M01A mC2022 06 23.25912916 46 38.420+16 30 24.66               VEM047I52
     K22M01A mC2022 06 23.26069616 46 37.960+16 30 15.84         19.04GVEM047I52
     K22M01A mC2022 06 23.26225216 46 37.488+16 30 06.62         19.07GVEM047I52
     K22M01A mC2022 06 23.26379716 46 37.020+16 29 57.44         19.29GVEM047I52

Observer details:
B49 Paus Observatory, Sabadell.  Observer J. Camarasa.  Measurer G.
    Duszanowicz.  0.30-m f/4.0 0.30-m + CCD.
I52 Steward Observatory, Mt. Lemmon Station.  Observer R. A. Kowalski.
    Measurers E. J. Christensen, D. Fay, J. B. Fazekas, D. C. Fuls, A. R.
    Gibbs, A. D. Grauer, H. Groeller, J. K. Hogan, R. A. Kowalski, S. M.
    Larson, G. J. Leonard, D. Rankin, R. L. Seaman, A. Serrano, F. C. Shelly,
    K. W. Wierzchos.  1.0-m prime focus + CCD.
J95 Great Shefford.  Observer P. Birtwhistle.  0.41-m f/6.3 Schmidt-Cassegrain
    + CCD.
K63 G. Pascoli Observatory, Castelvecchio Pascoli.  Observer R. Bacci.  0.41-m
    f/3.21 0.41m f/3.2  Newton + CCD.
L01 Visnjan Observatory, Tican.  Observer K. Korlevic.  1.0-m f/2.9 reflector
    + CCD.
M21 Schiaparelli Southern Observatory, Hakos.  Observers A. Aletti, F.
    Bellini, L. Buzzi, G. Galli.  Measurer L. Buzzi.  0.36-m f/8.4 reflector +
    CCD.
T08 ATLAS-MLO, Mauna Loa.  Observers L. Denneau, R. Siverd, J. Tonry, H.
    Weiland.  Measurers L. Denneau, N. Erasmus, A. Fitzsimmons, A. Lawrence,
    J. Robinson, R. Siverd, J. Tonry, H. Weiland.  0.5-m Reflector + CCD.
Z41 Irydeo Observatory, Camarma de Esteruelas.  Observer F. Calvo.  0.30-m
    f/5.9 reflector + CCD.
Z84 Calar Alto-Schmidt.  Observer E. Schwab.  Measurers E. Schwab, D. Koschny,
    M. Micheli.  0.8-m f/3 Schmidt + CCD.

Orbital elements:
2022 MA1                                                 Earth MOID = 0.0352 AU
Epoch 2022 Aug. 9.0 TT = JDT 2459800.5                  Veres                   
M 358.28315              (2000.0)            P               Q                  
n   0.51659176     Peri.  225.85089     +0.75953499     +0.53157674             
a   1.5382883      Node    98.48877     -0.43394247     +0.84341864             
e   0.3691735      Incl.   22.27357     -0.48456220     +0.07791768             
P   1.91           H   22.38          G   0.15           U   9                  
Residuals in seconds of arc
220622 T08  0.0   0.3+    220622 K63  0.3-  0.8-    220622 L01  0.3-  0.1+
220622 T08  0.4-  0.7+    220622 K63  0.1-  0.4-    220622 L01  0.1-  0.2+
220622 T08  0.3+  0.3+    220622 K63  0.2-  0.9-    220622 L01  0.3-  0.3+
220622 T08  0.2-  0.5-    220622 Z41  0.1+  0.2-    220623 Z84  0.2+  0.2+
220622 B49  0.5+  0.7+    220622 Z41  0.4+  0.0     220623 Z84  0.0   0.1+
220622 B49  0.1-  0.4+    220622 Z41  0.3+  0.1-    220623 Z84  0.0   0.1+
220622 B49  0.1-  0.9+    220622 Z41  0.4+  0.0     220623 I52  0.1+  0.3-
220622 B49  0.2+  1.1+    220622 J95  0.4-  0.4+    220623 I52  0.2+  0.1+
220622 B49  0.1+  1.2+    220622 J95  0.2+  0.3+    220623 I52  0.0   0.1+
220622 M21  0.4-  0.4+    220622 J95  0.3+  0.2-    220623 I52  0.1-  0.0
220622 B49  0.0   0.6+    220622 L01  0.2-  0.7+
220622 M21  0.3-  0.6-    220622 L01  0.1+  0.5+

Ephemeris:
2022 MA1                 a,e,i = 1.54, 0.37, 22                  q = 0.9704
Date    TT    R. A. (2000) Decl.     Delta      r    Elong.  Phase     V
2022 05 24    17 35 51.2 +27 32 53   0.3483  1.2522   126.7    40.4    22.2
...
2022 06 08    17 24 36.9 +27 10 58   0.2264  1.1727   129.8    41.7    21.1
...
2022 06 16    17 10 19.9 +24 05 36   0.1643  1.1326   132.2    41.7    20.4
...
2022 06 22    16 51 56.0 +18 24 14   0.1200  1.1042   134.9    40.7    19.6
2022 06 23    16 47 47.3 +16 55 50   0.1129  1.0996   135.4    40.5    19.4
2022 06 24    16 43 12.8 +15 14 11   0.1060  1.0951   136.0    40.2    19.3
...
2022 06 30    16 01 46.0 -02 18 45   0.06973 1.0691   137.6    39.9    18.3
...
2022 07 08    13 27 07.0 -50 06 22   0.05800 1.0381   110.2    66.8    18.6
...
2022 07 23    07 37 30.7 -56 40 03   0.1444  0.9938    77.1    94.7    21.5

M. P. C. Staff               (C) Copyright 2022 MPC           M.P.E.C. 2022-M47




More information about the Iaude mailing list